Погода в Иваньково-Ленином

Россия / Чувашская Республика     54°43′02″N   46°41′17″E
темп.,
°C
ветер,
м/с
пор.,
м/с
влажн.,
%
обл.,
%
осадки,
мм/ч
давл.,
гПа
погр.,
м
19 сентября, вс
вс1900:00+1ссз117813 0.0 102610
03:00+1с2281100 0.0 102617
06:000ссв118398 0.0 102610
09:00+6ссв235692 0.0 1026650
12:00+10с1241100 0.0 10261208
15:00+11с113869 0.0 10251310
18:00+6св1155100 0.0 102512
21:00+4в2362100 0.0 102540
20 сентября, пн
пн2000:00+3в2465100 0.0 102566
03:00+3в2769100 0.0 1025137
06:00+4в31068100 0.0 1025338
09:00+7вюв585997 0.0 1025660
12:00+10вюв5746100 0.0 10241074
15:00+9вюв4752100 0.0 10241066
18:00+7в4966100 0.3 1024997
21:00+8вюв4965100 0.4 10241013
21 сентября, вт
вт2100:00+8вюв4961100 0.0 10231050
03:00+8вюв51164100 0.0 1022805
06:00+8вюв61267100 0.0 1021809
09:00+7вюв51376100 0.2 1021677
12:00+7вюв61280100 0.4 1020653
15:00+7вюв51179100 0.8 1019692
18:00+8вюв51274100 0.1 1019648
21:00+7в41275100 0.1 1017429
22 сентября, ср
ср2200:00+7в5137544 0.0 1016409
03:00+7в41373100 0.0 1014418
06:00+8в51368100 0.1 1012477
09:00+7вюв61594100 8.1 1012645
12:00+9юв51294100 3.6 1012618
15:00+12юв4108899 3.7 1013558
18:00+10вюв379734 0.0 1015188
21:00+10вюв2798100 0.0 1016245
23 сентября, чт
чт2300:00+11юв3797100 0.0 1016327
03:00+10вюв399084 0.1 1017313
06:00+9вюв3987100 0.1 1017354
09:00+10юв387667 0.1 1018366
12:00+15ю356570 0.0 1018961
15:00+14юв4778100 0.4 1019480
18:00+11юв4119068 0.0 1020654
21:00+10юв51087100 0.0 1020624